Year,Month,Day,Hour,Minute,Value (Times are PST for temperature in C)
2022,01,03,00,00,30.90
2022,01,03,00,01,31.00
2022,01,03,00,02,31.10
2022,01,03,00,03,31.10
2022,01,03,00,04,31.20
2022,01,03,00,05,31.20
2022,01,03,00,06,31.20
2022,01,03,00,07,31.20
2022,01,03,00,08,31.20
2022,01,03,00,09,31.30
2022,01,03,00,10,31.30
2022,01,03,00,11,31.30
2022,01,03,00,12,31.30
2022,01,03,00,13,31.30
2022,01,03,00,14,31.30
2022,01,03,00,15,31.30
2022,01,03,00,16,31.20
2022,01,03,00,17,31.20
2022,01,03,00,18,31.20
2022,01,03,00,19,31.20
2022,01,03,00,20,31.10
2022,01,03,00,21,31.10
2022,01,03,00,22,31.10
2022,01,03,00,23,31.10
2022,01,03,00,24,31.00
2022,01,03,00,25,31.00
2022,01,03,00,26,30.90
2022,01,03,00,27,30.90
2022,01,03,00,28,30.90
2022,01,03,00,29,30.80
2022,01,03,00,30,30.80
2022,01,03,00,31,30.80
2022,01,03,00,32,30.80
2022,01,03,00,33,30.80
2022,01,03,00,34,30.80
2022,01,03,00,35,30.80
2022,01,03,00,36,30.80
2022,01,03,00,37,30.80
2022,01,03,00,38,30.80
2022,01,03,00,39,30.70
2022,01,03,00,40,30.70
2022,01,03,00,41,30.70
2022,01,03,00,42,30.70
2022,01,03,00,43,30.70
2022,01,03,00,44,30.70
2022,01,03,00,45,30.70
2022,01,03,00,46,30.70
2022,01,03,00,47,30.70
2022,01,03,00,48,30.70
2022,01,03,00,49,30.60
2022,01,03,00,50,30.60
2022,01,03,00,51,30.60
2022,01,03,00,52,30.60
2022,01,03,00,53,30.60
2022,01,03,00,54,30.60
2022,01,03,00,55,30.60
2022,01,03,00,56,30.60
2022,01,03,00,57,30.50
2022,01,03,00,58,30.50
2022,01,03,00,59,30.50
2022,01,03,01,00,30.50
2022,01,03,01,01,30.50
2022,01,03,01,02,30.60
2022,01,03,01,03,30.80
2022,01,03,01,04,31.10
2022,01,03,01,05,31.40
2022,01,03,01,06,31.70
2022,01,03,01,07,31.80
2022,01,03,01,08,32.00
2022,01,03,01,09,32.20
2022,01,03,01,10,32.30
2022,01,03,01,11,32.40
2022,01,03,01,12,32.50
2022,01,03,01,13,32.50
2022,01,03,01,14,32.60
2022,01,03,01,15,32.60
2022,01,03,01,16,32.60
2022,01,03,01,17,32.60
2022,01,03,01,18,32.60
2022,01,03,01,19,32.70
2022,01,03,01,20,32.70
2022,01,03,01,21,32.70
2022,01,03,01,22,32.70
2022,01,03,01,23,32.70
2022,01,03,01,24,32.70
2022,01,03,01,25,32.70
2022,01,03,01,26,32.70
2022,01,03,01,27,32.70
2022,01,03,01,28,32.70
2022,01,03,01,29,32.70
2022,01,03,01,30,32.60
2022,01,03,01,31,32.60
2022,01,03,01,32,32.60
2022,01,03,01,33,32.60
2022,01,03,01,34,32.60
2022,01,03,01,35,32.60
2022,01,03,01,36,32.50
2022,01,03,01,37,32.50
2022,01,03,01,38,32.60
2022,01,03,01,39,32.50
2022,01,03,01,40,32.50
2022,01,03,01,41,32.60
2022,01,03,01,42,32.60
2022,01,03,01,43,32.60
2022,01,03,01,44,32.60
2022,01,03,01,45,32.60
2022,01,03,01,46,32.60
2022,01,03,01,47,32.60
2022,01,03,01,48,32.60
2022,01,03,01,49,32.60
2022,01,03,01,50,32.60
2022,01,03,01,51,32.60
2022,01,03,01,52,32.60
2022,01,03,01,53,32.60
2022,01,03,01,54,32.60
2022,01,03,01,55,32.60
2022,01,03,01,56,32.60
2022,01,03,01,57,32.60
2022,01,03,01,58,32.60
2022,01,03,01,59,32.60
2022,01,03,02,00,32.60
2022,01,03,02,01,32.60
2022,01,03,02,02,32.60
2022,01,03,02,03,32.50
2022,01,03,02,04,32.50
2022,01,03,02,05,32.40
2022,01,03,02,06,32.40
2022,01,03,02,07,32.40
2022,01,03,02,08,32.40
2022,01,03,02,09,32.40
2022,01,03,02,10,32.30
2022,01,03,02,11,32.30
2022,01,03,02,12,32.30
2022,01,03,02,13,32.20
2022,01,03,02,14,32.20
2022,01,03,02,15,32.20
2022,01,03,02,16,32.20
2022,01,03,02,17,32.10
2022,01,03,02,18,32.10
2022,01,03,02,19,32.10
2022,01,03,02,20,32.00
2022,01,03,02,21,32.00
2022,01,03,02,22,32.00
2022,01,03,02,23,32.00
2022,01,03,02,24,31.90
2022,01,03,02,25,31.90
2022,01,03,02,26,31.90
2022,01,03,02,27,31.80
2022,01,03,02,28,31.80
2022,01,03,02,29,31.70
2022,01,03,02,30,31.70
2022,01,03,02,31,31.60
2022,01,03,02,32,31.50
2022,01,03,02,33,31.40
2022,01,03,02,34,31.40
2022,01,03,02,35,31.30
2022,01,03,02,36,31.30
2022,01,03,02,37,31.30
2022,01,03,02,38,31.20
2022,01,03,02,39,31.20
2022,01,03,02,40,31.20
2022,01,03,02,41,31.30
2022,01,03,02,42,31.30
2022,01,03,02,43,31.40
2022,01,03,02,44,31.40
2022,01,03,02,45,31.60
2022,01,03,02,46,31.70
2022,01,03,02,47,31.80
2022,01,03,02,48,31.90
2022,01,03,02,49,32.00
2022,01,03,02,50,32.10
2022,01,03,02,51,32.10
2022,01,03,02,52,32.10
2022,01,03,02,53,32.10
2022,01,03,02,54,32.20
2022,01,03,02,55,32.20
2022,01,03,02,56,32.20
2022,01,03,02,57,32.20
2022,01,03,02,58,32.20
2022,01,03,02,59,32.30
2022,01,03,03,00,32.30
2022,01,03,03,01,32.30
2022,01,03,03,02,32.20
2022,01,03,03,03,32.20
2022,01,03,03,04,32.20
2022,01,03,03,05,32.20
2022,01,03,03,06,32.20
2022,01,03,03,07,32.20
2022,01,03,03,08,32.30
2022,01,03,03,09,32.30
2022,01,03,03,10,32.30
2022,01,03,03,11,32.30
2022,01,03,03,12,32.30
2022,01,03,03,13,32.30
2022,01,03,03,14,32.30
2022,01,03,03,15,32.30
2022,01,03,03,16,32.30
2022,01,03,03,17,32.30
2022,01,03,03,18,32.30
2022,01,03,03,19,32.30
2022,01,03,03,20,32.30
2022,01,03,03,21,32.20
2022,01,03,03,22,32.20
2022,01,03,03,23,32.10
2022,01,03,03,24,32.10
2022,01,03,03,25,32.10
2022,01,03,03,26,32.00
2022,01,03,03,27,32.00
2022,01,03,03,28,32.00
2022,01,03,03,29,31.90
2022,01,03,03,30,31.90
2022,01,03,03,31,31.90
2022,01,03,03,32,31.90
2022,01,03,03,33,31.90
2022,01,03,03,34,31.90
2022,01,03,03,35,31.90
2022,01,03,03,36,31.80
2022,01,03,03,37,31.80
2022,01,03,03,38,31.80
2022,01,03,03,39,31.70
2022,01,03,03,40,31.70
2022,01,03,03,41,31.70
2022,01,03,03,42,31.70
2022,01,03,03,43,31.70
2022,01,03,03,44,31.70
2022,01,03,03,45,31.70
2022,01,03,03,46,31.70
2022,01,03,03,47,31.80
2022,01,03,03,48,31.80
2022,01,03,03,49,31.80
2022,01,03,03,50,31.80
2022,01,03,03,51,31.80
2022,01,03,03,52,31.80
2022,01,03,03,53,31.80
2022,01,03,03,54,31.80
2022,01,03,03,55,31.70
2022,01,03,03,56,31.70
2022,01,03,03,57,31.60
2022,01,03,03,58,31.60
2022,01,03,03,59,31.60
2022,01,03,04,00,31.60
2022,01,03,04,01,31.60
2022,01,03,04,02,31.70
2022,01,03,04,03,31.70
2022,01,03,04,04,31.70
2022,01,03,04,05,31.80
2022,01,03,04,06,31.80
2022,01,03,04,07,31.80
2022,01,03,04,08,31.80
2022,01,03,04,09,31.80
2022,01,03,04,10,31.80
2022,01,03,04,11,31.80
2022,01,03,04,12,31.80
2022,01,03,04,13,31.90
2022,01,03,04,14,31.80
2022,01,03,04,15,31.80
2022,01,03,04,16,31.80
2022,01,03,04,17,31.80
2022,01,03,04,18,31.80
2022,01,03,04,19,31.80
2022,01,03,04,20,31.70
2022,01,03,04,21,31.70
2022,01,03,04,22,31.70
2022,01,03,04,23,31.60
2022,01,03,04,24,31.50
2022,01,03,04,25,31.50
2022,01,03,04,26,31.40
2022,01,03,04,27,31.30
2022,01,03,04,28,31.30
2022,01,03,04,29,31.20
2022,01,03,04,30,31.20
2022,01,03,04,31,31.20
2022,01,03,04,32,31.10
2022,01,03,04,33,31.10
2022,01,03,04,34,31.00
2022,01,03,04,35,31.00
2022,01,03,04,36,31.00
2022,01,03,04,37,31.00
2022,01,03,04,38,31.00
2022,01,03,04,39,30.90
2022,01,03,04,40,30.90
2022,01,03,04,41,30.90
2022,01,03,04,42,30.90
2022,01,03,04,43,30.90
2022,01,03,04,44,30.90
2022,01,03,04,45,30.90
2022,01,03,04,46,30.90
2022,01,03,04,47,30.80
2022,01,03,04,48,30.80
2022,01,03,04,49,30.80
2022,01,03,04,50,30.80
2022,01,03,04,51,30.80
2022,01,03,04,52,30.70
2022,01,03,04,53,30.70
2022,01,03,04,54,30.70
2022,01,03,04,55,30.70
2022,01,03,04,56,30.70
2022,01,03,04,57,30.60
2022,01,03,04,58,30.60
2022,01,03,04,59,30.60
2022,01,03,05,00,30.60
2022,01,03,05,01,30.60
2022,01,03,05,02,30.60
2022,01,03,05,03,30.50
2022,01,03,05,04,30.50
2022,01,03,05,05,30.50
2022,01,03,05,06,30.50
2022,01,03,05,07,30.50
2022,01,03,05,08,30.50
2022,01,03,05,09,30.50
2022,01,03,05,10,30.50
2022,01,03,05,11,30.50
2022,01,03,05,12,30.40
2022,01,03,05,13,30.40
2022,01,03,05,14,30.40
2022,01,03,05,15,30.40
2022,01,03,05,16,30.40
2022,01,03,05,17,30.40
2022,01,03,05,18,30.30
2022,01,03,05,19,30.30
2022,01,03,05,20,30.30
2022,01,03,05,21,30.30
2022,01,03,05,22,30.30
2022,01,03,05,23,30.30
2022,01,03,05,24,30.30
2022,01,03,05,25,30.30
2022,01,03,05,26,30.30
2022,01,03,05,27,30.30
2022,01,03,05,28,30.30
2022,01,03,05,29,30.30
2022,01,03,05,30,30.30
2022,01,03,05,31,30.30
2022,01,03,05,32,30.30
2022,01,03,05,33,30.30
2022,01,03,05,34,30.30
2022,01,03,05,35,30.30
2022,01,03,05,36,30.30
2022,01,03,05,37,30.30
2022,01,03,05,38,30.30
2022,01,03,05,39,30.30
2022,01,03,05,40,30.30
2022,01,03,05,41,30.30
2022,01,03,05,42,30.30
2022,01,03,05,43,30.30
2022,01,03,05,44,30.30
2022,01,03,05,45,30.30
2022,01,03,05,46,30.20
2022,01,03,05,47,30.20
2022,01,03,05,48,30.20
2022,01,03,05,49,30.20
2022,01,03,05,50,30.20
2022,01,03,05,51,30.20
2022,01,03,05,52,30.20
2022,01,03,05,53,30.30
2022,01,03,05,54,30.30
2022,01,03,05,55,30.30
2022,01,03,05,56,30.30
2022,01,03,05,57,30.30
2022,01,03,05,58,30.30
2022,01,03,05,59,30.30
2022,01,03,06,00,30.30
2022,01,03,06,01,30.40
2022,01,03,06,02,30.40
2022,01,03,06,03,30.50
2022,01,03,06,04,30.70
2022,01,03,06,05,30.80
2022,01,03,06,06,30.90
2022,01,03,06,07,31.00
2022,01,03,06,08,31.10
2022,01,03,06,09,31.20
2022,01,03,06,10,31.30
2022,01,03,06,11,31.30
2022,01,03,06,12,31.40
2022,01,03,06,13,31.40
2022,01,03,06,14,31.50
2022,01,03,06,15,31.50
2022,01,03,06,16,31.50
2022,01,03,06,17,31.60
2022,01,03,06,18,31.50
2022,01,03,06,19,31.50
2022,01,03,06,20,31.40
2022,01,03,06,21,31.30
2022,01,03,06,22,31.30
2022,01,03,06,23,31.30
2022,01,03,06,24,31.30
2022,01,03,06,25,31.20
2022,01,03,06,26,31.20
2022,01,03,06,27,31.20
2022,01,03,06,28,31.20
2022,01,03,06,29,31.20
2022,01,03,06,30,31.20
2022,01,03,06,31,31.20
2022,01,03,06,32,31.10
2022,01,03,06,33,31.20
2022,01,03,06,34,31.20
2022,01,03,06,35,31.20
2022,01,03,06,36,31.20
2022,01,03,06,37,31.20
2022,01,03,06,38,31.20
2022,01,03,06,39,31.10
2022,01,03,06,40,31.10
2022,01,03,06,41,31.00
2022,01,03,06,42,31.00
2022,01,03,06,43,30.90
2022,01,03,06,44,30.90
2022,01,03,06,45,30.80
2022,01,03,06,46,30.80
2022,01,03,06,47,30.80
2022,01,03,06,48,30.70
2022,01,03,06,49,30.70
2022,01,03,06,50,30.60
2022,01,03,06,51,30.60
2022,01,03,06,52,30.50
2022,01,03,06,53,30.50
2022,01,03,06,54,30.40
2022,01,03,06,55,30.30
2022,01,03,06,56,30.30
2022,01,03,06,57,30.30
2022,01,03,06,58,30.30
2022,01,03,06,59,30.20
2022,01,03,07,00,30.20
2022,01,03,07,01,30.20
2022,01,03,07,02,30.10
2022,01,03,07,03,30.10
2022,01,03,07,04,30.10
2022,01,03,07,05,30.10
2022,01,03,07,06,30.10
2022,01,03,07,07,30.10
2022,01,03,07,08,30.00
2022,01,03,07,09,30.00
2022,01,03,07,10,30.00
2022,01,03,07,11,30.00
2022,01,03,07,12,29.90
2022,01,03,07,13,29.90
2022,01,03,07,14,29.80
2022,01,03,07,15,29.80
2022,01,03,07,16,29.80
2022,01,03,07,17,29.80
2022,01,03,07,18,29.80
2022,01,03,07,19,29.80
2022,01,03,07,20,29.80
2022,01,03,07,21,29.80
2022,01,03,07,22,29.80
2022,01,03,07,23,29.80
2022,01,03,07,24,29.80
2022,01,03,07,25,29.80
2022,01,03,07,26,29.80
2022,01,03,07,27,29.80
2022,01,03,07,28,29.80
2022,01,03,07,29,29.80
2022,01,03,07,30,29.90
2022,01,03,07,31,29.90
2022,01,03,07,32,30.00
2022,01,03,07,33,30.00
2022,01,03,07,34,30.10
2022,01,03,07,35,30.10
2022,01,03,07,36,30.10
2022,01,03,07,37,30.10
2022,01,03,07,38,30.10
2022,01,03,07,39,30.10
2022,01,03,07,40,30.10
2022,01,03,07,41,30.10
2022,01,03,07,42,30.10
2022,01,03,07,43,30.10
2022,01,03,07,44,30.00
2022,01,03,07,45,30.00
2022,01,03,07,46,30.00
2022,01,03,07,47,30.00
2022,01,03,07,48,30.00
2022,01,03,07,49,29.90
2022,01,03,07,50,29.90
2022,01,03,07,51,29.90
2022,01,03,07,52,29.90
2022,01,03,07,53,29.90
2022,01,03,07,54,29.90
2022,01,03,07,55,29.90
2022,01,03,07,56,29.80
2022,01,03,07,57,29.80
2022,01,03,07,58,29.80
2022,01,03,07,59,29.80
2022,01,03,08,00,29.80
2022,01,03,08,01,29.80
2022,01,03,08,02,29.80
2022,01,03,08,03,29.80
2022,01,03,08,04,29.80
2022,01,03,08,05,29.80
2022,01,03,08,06,29.80
2022,01,03,08,07,29.70
2022,01,03,08,08,29.70
2022,01,03,08,09,29.70
2022,01,03,08,10,29.80
2022,01,03,08,11,29.70
2022,01,03,08,12,29.70
2022,01,03,08,13,29.70
2022,01,03,08,14,29.70
2022,01,03,08,15,29.70
2022,01,03,08,16,29.70
2022,01,03,08,17,29.70
2022,01,03,08,18,29.70
2022,01,03,08,19,29.70
2022,01,03,08,20,29.70
2022,01,03,08,21,29.70
2022,01,03,08,22,29.70
2022,01,03,08,23,29.70
2022,01,03,08,24,29.60
2022,01,03,08,25,29.70
2022,01,03,08,26,29.70
2022,01,03,08,27,29.70
2022,01,03,08,28,29.70
2022,01,03,08,29,29.70
2022,01,03,08,30,29.70
2022,01,03,08,31,29.70
2022,01,03,08,32,29.70
2022,01,03,08,33,29.70
2022,01,03,08,34,29.70
2022,01,03,08,35,29.70
2022,01,03,08,36,29.70
2022,01,03,08,37,29.70
2022,01,03,08,38,29.70
2022,01,03,08,39,29.70
2022,01,03,08,40,29.80
2022,01,03,08,41,29.80
2022,01,03,08,42,29.80
2022,01,03,08,43,29.80
2022,01,03,08,44,29.80
2022,01,03,08,45,29.90
2022,01,03,08,46,29.90
2022,01,03,08,47,29.90
2022,01,03,08,48,29.90
2022,01,03,08,49,29.90
2022,01,03,08,50,29.90
2022,01,03,08,51,29.90
2022,01,03,08,52,29.90
2022,01,03,08,53,29.90
2022,01,03,08,54,29.90
2022,01,03,08,55,29.90
2022,01,03,08,56,29.90
2022,01,03,08,57,29.90
2022,01,03,08,58,29.90
2022,01,03,08,59,29.90
2022,01,03,09,00,29.90
2022,01,03,09,01,29.90
2022,01,03,09,02,29.90
2022,01,03,09,03,29.90
2022,01,03,09,04,29.90
2022,01,03,09,05,29.90
2022,01,03,09,06,29.90
2022,01,03,09,07,29.90
2022,01,03,09,08,29.90
2022,01,03,09,09,29.90
2022,01,03,09,10,29.90
2022,01,03,09,11,29.90
2022,01,03,09,12,29.90
2022,01,03,09,13,29.90
2022,01,03,09,14,29.90
2022,01,03,09,15,29.90
2022,01,03,09,16,29.90
2022,01,03,09,17,29.90
2022,01,03,09,18,29.80
2022,01,03,09,19,29.80
2022,01,03,09,20,29.80
2022,01,03,09,21,29.80
2022,01,03,09,22,29.80
2022,01,03,09,23,29.80
2022,01,03,09,24,29.80
2022,01,03,09,25,29.80
2022,01,03,09,26,29.80
2022,01,03,09,27,29.80
2022,01,03,09,28,29.80
2022,01,03,09,29,29.80
2022,01,03,09,30,29.80
2022,01,03,09,31,29.80
2022,01,03,09,32,29.80
2022,01,03,09,33,29.90
2022,01,03,09,34,29.90
2022,01,03,09,35,29.90
2022,01,03,09,36,30.00
2022,01,03,09,37,30.00
2022,01,03,09,38,30.10
2022,01,03,09,39,30.10
2022,01,03,09,40,30.10
2022,01,03,09,41,30.00
2022,01,03,09,42,30.00
2022,01,03,09,43,30.00
2022,01,03,09,44,30.10
2022,01,03,09,45,30.10
2022,01,03,09,46,30.10
2022,01,03,09,47,30.10
2022,01,03,09,48,30.10
2022,01,03,09,49,30.10
2022,01,03,09,50,30.10
2022,01,03,09,51,30.10
2022,01,03,09,52,30.10
2022,01,03,09,53,30.10
2022,01,03,09,54,30.10
2022,01,03,09,55,30.20
2022,01,03,09,56,30.20
2022,01,03,09,57,30.20
2022,01,03,09,58,30.20
2022,01,03,09,59,30.30
2022,01,03,10,00,30.30
2022,01,03,10,01,30.40
2022,01,03,10,02,30.40
2022,01,03,10,03,30.50
2022,01,03,10,04,30.60
2022,01,03,10,05,30.60
2022,01,03,10,06,30.70
2022,01,03,10,07,30.80
2022,01,03,10,08,30.80
2022,01,03,10,09,30.80
2022,01,03,10,10,30.80
2022,01,03,10,11,30.90
2022,01,03,10,12,30.90
2022,01,03,10,13,30.90
2022,01,03,10,14,31.00
2022,01,03,10,15,31.00
2022,01,03,10,16,31.10
2022,01,03,10,17,31.10
2022,01,03,10,18,31.10
2022,01,03,10,19,31.20
2022,01,03,10,20,31.20
2022,01,03,10,21,31.30
2022,01,03,10,22,31.40
2022,01,03,10,23,31.40
2022,01,03,10,24,31.40
2022,01,03,10,25,31.50
2022,01,03,10,26,31.50
2022,01,03,10,27,31.50
2022,01,03,10,28,31.60
2022,01,03,10,29,31.60
2022,01,03,10,30,31.60
2022,01,03,10,31,31.60
2022,01,03,10,32,31.60
2022,01,03,10,33,31.70
2022,01,03,10,34,31.70
2022,01,03,10,35,31.70
2022,01,03,10,36,31.70
2022,01,03,10,37,31.70
2022,01,03,10,38,31.60
2022,01,03,10,39,31.60
2022,01,03,10,40,31.60
2022,01,03,10,41,31.60
2022,01,03,10,42,31.60
2022,01,03,10,43,31.60
2022,01,03,10,44,31.70
2022,01,03,10,45,31.70
2022,01,03,10,46,31.70
2022,01,03,10,47,31.80
2022,01,03,10,48,31.80
2022,01,03,10,49,31.80
2022,01,03,10,50,31.80
2022,01,03,10,51,31.80
2022,01,03,10,52,31.80
2022,01,03,10,53,31.80
2022,01,03,10,54,31.80
2022,01,03,10,55,31.80
2022,01,03,10,56,31.80
2022,01,03,10,57,31.80
2022,01,03,10,58,31.90
2022,01,03,10,59,31.90
2022,01,03,11,00,32.00
2022,01,03,11,01,32.00
2022,01,03,11,02,32.10
2022,01,03,11,03,32.10
2022,01,03,11,04,32.10
2022,01,03,11,05,32.20
2022,01,03,11,06,32.20
2022,01,03,11,07,32.20
2022,01,03,11,08,32.10
2022,01,03,11,09,32.10
2022,01,03,11,10,32.10
2022,01,03,11,11,32.10
2022,01,03,11,12,32.10
2022,01,03,11,13,32.10
2022,01,03,11,14,32.10
2022,01,03,11,15,32.10
2022,01,03,11,16,32.10
2022,01,03,11,17,32.10
2022,01,03,11,18,32.00
2022,01,03,11,19,32.00
2022,01,03,11,20,31.90
2022,01,03,11,21,31.90
2022,01,03,11,22,31.80
2022,01,03,11,23,31.80
2022,01,03,11,24,31.70
2022,01,03,11,25,31.60
2022,01,03,11,26,31.50
2022,01,03,11,27,31.50
2022,01,03,11,28,31.40
2022,01,03,11,29,31.40
2022,01,03,11,30,31.30
2022,01,03,11,31,31.30
2022,01,03,11,32,31.20
2022,01,03,11,33,31.20
2022,01,03,11,34,31.20
2022,01,03,11,35,31.10
2022,01,03,11,36,31.10
2022,01,03,11,37,31.10
2022,01,03,11,38,31.10
2022,01,03,11,39,31.10
2022,01,03,11,40,31.10
2022,01,03,11,41,31.10
2022,01,03,11,42,31.10
2022,01,03,11,43,31.10
2022,01,03,11,44,31.10
2022,01,03,11,45,31.10
2022,01,03,11,46,31.20
2022,01,03,11,47,31.20
2022,01,03,11,48,31.20
2022,01,03,11,49,31.20
2022,01,03,11,50,31.20
2022,01,03,11,51,31.20
2022,01,03,11,52,31.30
2022,01,03,11,53,31.30
2022,01,03,11,54,31.30
2022,01,03,11,55,31.30
2022,01,03,11,56,31.30
2022,01,03,11,57,31.30
2022,01,03,11,58,31.30
2022,01,03,11,59,31.30
2022,01,03,12,00,31.30
2022,01,03,12,01,31.30
2022,01,03,12,02,31.30
2022,01,03,12,03,31.30
2022,01,03,12,04,31.30
2022,01,03,12,05,31.30
2022,01,03,12,06,31.30
2022,01,03,12,07,31.40
2022,01,03,12,08,31.40
2022,01,03,12,09,31.40
2022,01,03,12,10,31.40
2022,01,03,12,11,31.40
2022,01,03,12,12,31.40
2022,01,03,12,13,31.40
2022,01,03,12,14,31.40
2022,01,03,12,15,31.40
2022,01,03,12,16,31.40
2022,01,03,12,17,31.30
2022,01,03,12,18,31.30
2022,01,03,12,19,31.30
2022,01,03,12,20,31.30
2022,01,03,12,21,31.30
2022,01,03,12,22,31.20
2022,01,03,12,23,31.10
2022,01,03,12,24,31.10
2022,01,03,12,25,31.10
2022,01,03,12,26,31.00
2022,01,03,12,27,31.00
2022,01,03,12,28,31.00
2022,01,03,12,29,31.00
2022,01,03,12,30,31.10
2022,01,03,12,31,31.00
2022,01,03,12,32,31.10
2022,01,03,12,33,31.10
2022,01,03,12,34,31.10
2022,01,03,12,35,31.10
2022,01,03,12,36,31.10
2022,01,03,12,37,31.20
2022,01,03,12,38,31.20
2022,01,03,12,39,31.30
2022,01,03,12,40,31.30
2022,01,03,12,41,31.40
2022,01,03,12,42,31.50
2022,01,03,12,43,31.60
2022,01,03,12,44,31.70
2022,01,03,12,45,31.70
2022,01,03,12,46,31.80
2022,01,03,12,47,31.80
2022,01,03,12,48,31.90
2022,01,03,12,49,31.90
2022,01,03,12,50,31.90
2022,01,03,12,51,31.90
2022,01,03,12,52,31.80
2022,01,03,12,53,31.80
2022,01,03,12,54,31.80
2022,01,03,12,55,31.80
2022,01,03,12,56,31.80
2022,01,03,12,57,31.80
2022,01,03,12,58,31.90
2022,01,03,12,59,31.90
2022,01,03,13,00,31.90
2022,01,03,13,01,32.00
2022,01,03,13,02,32.00
2022,01,03,13,03,32.10
2022,01,03,13,04,32.10
2022,01,03,13,05,32.20
2022,01,03,13,06,32.20
2022,01,03,13,07,32.20
2022,01,03,13,08,32.20
2022,01,03,13,09,32.10
2022,01,03,13,10,32.10
2022,01,03,13,11,32.10
2022,01,03,13,12,32.10
2022,01,03,13,13,32.10
2022,01,03,13,14,32.00
2022,01,03,13,15,32.00
2022,01,03,13,16,31.90
2022,01,03,13,17,31.90
2022,01,03,13,18,31.80
2022,01,03,13,19,31.80
2022,01,03,13,20,31.80
2022,01,03,13,21,31.80
2022,01,03,13,22,31.80
2022,01,03,13,23,31.80
2022,01,03,13,24,31.80
2022,01,03,13,25,31.90
2022,01,03,13,26,31.90
2022,01,03,13,27,31.90
2022,01,03,13,28,32.00
2022,01,03,13,29,31.90
2022,01,03,13,30,32.00
2022,01,03,13,31,32.00
2022,01,03,13,32,32.00
2022,01,03,13,33,32.00
2022,01,03,13,34,32.00
2022,01,03,13,35,32.00
2022,01,03,13,36,31.90
2022,01,03,13,37,31.80
2022,01,03,13,38,31.80
2022,01,03,13,39,31.80
2022,01,03,13,40,31.80
2022,01,03,13,41,31.80
2022,01,03,13,42,31.80
2022,01,03,13,43,31.80
2022,01,03,13,44,31.80
2022,01,03,13,45,31.70
2022,01,03,13,46,31.70
2022,01,03,13,47,31.70
2022,01,03,13,48,31.70
2022,01,03,13,49,31.70
2022,01,03,13,50,31.70
2022,01,03,13,51,31.70
2022,01,03,13,52,31.70
2022,01,03,13,53,31.60
2022,01,03,13,54,31.60
2022,01,03,13,55,31.60
2022,01,03,13,56,31.60
2022,01,03,13,57,31.70
2022,01,03,13,58,31.70
2022,01,03,13,59,31.80
2022,01,03,14,00,31.80
2022,01,03,14,01,31.90
2022,01,03,14,02,31.90
2022,01,03,14,03,31.80
2022,01,03,14,04,31.80
2022,01,03,14,05,31.80
2022,01,03,14,06,31.80
2022,01,03,14,07,31.80
2022,01,03,14,08,31.80
2022,01,03,14,09,31.70
2022,01,03,14,10,31.50
2022,01,03,14,11,31.50
2022,01,03,14,12,31.40
2022,01,03,14,13,31.40
2022,01,03,14,14,31.30
2022,01,03,14,15,31.20
2022,01,03,14,16,31.20
2022,01,03,14,17,31.10
2022,01,03,14,18,31.10
2022,01,03,14,19,31.00
2022,01,03,14,20,31.00
2022,01,03,14,21,31.00
2022,01,03,14,22,31.00
2022,01,03,14,23,31.00
2022,01,03,14,24,31.00
2022,01,03,14,25,31.00
2022,01,03,14,26,31.00
2022,01,03,14,27,31.00
2022,01,03,14,28,31.00
2022,01,03,14,29,31.00
2022,01,03,14,30,31.00
2022,01,03,14,31,31.00
2022,01,03,14,32,31.00
2022,01,03,14,33,31.00
2022,01,03,14,34,31.00
2022,01,03,14,35,30.90
2022,01,03,14,36,30.90
2022,01,03,14,37,30.90
2022,01,03,14,38,30.90
2022,01,03,14,39,30.90
2022,01,03,14,40,30.90
2022,01,03,14,41,30.90
2022,01,03,14,42,30.90
2022,01,03,14,43,31.00
2022,01,03,14,44,31.00
2022,01,03,14,45,31.00
2022,01,03,14,46,31.00
2022,01,03,14,47,31.10
2022,01,03,14,48,31.10
2022,01,03,14,49,31.10
2022,01,03,14,50,31.10
2022,01,03,14,51,31.10
2022,01,03,14,52,31.10
2022,01,03,14,53,31.10
2022,01,03,14,54,31.10
2022,01,03,14,55,31.10
2022,01,03,14,56,31.00
2022,01,03,14,57,31.00
2022,01,03,14,58,31.00
2022,01,03,14,59,31.00
2022,01,03,15,00,30.90
2022,01,03,15,01,30.90
2022,01,03,15,02,30.90
2022,01,03,15,03,30.90
2022,01,03,15,04,30.90
2022,01,03,15,05,30.90
2022,01,03,15,06,30.90
2022,01,03,15,07,30.90
2022,01,03,15,08,30.90
2022,01,03,15,09,30.90
2022,01,03,15,10,30.90
2022,01,03,15,11,30.90
2022,01,03,15,12,30.90
2022,01,03,15,13,30.90
2022,01,03,15,14,30.90
2022,01,03,15,15,30.80
2022,01,03,15,16,30.80
2022,01,03,15,17,30.80
2022,01,03,15,18,30.80
2022,01,03,15,19,30.80
2022,01,03,15,20,30.80
2022,01,03,15,21,30.80
2022,01,03,15,22,30.80
2022,01,03,15,23,30.70
2022,01,03,15,24,30.70
2022,01,03,15,25,30.70
2022,01,03,15,26,30.70
2022,01,03,15,27,30.70
2022,01,03,15,28,30.60
2022,01,03,15,29,30.60
2022,01,03,15,30,30.60
2022,01,03,15,31,30.60
2022,01,03,15,32,30.50
2022,01,03,15,33,30.50
2022,01,03,15,34,30.50
2022,01,03,15,35,30.50
2022,01,03,15,36,30.40
2022,01,03,15,37,30.40
2022,01,03,15,38,30.40
2022,01,03,15,39,30.40
2022,01,03,15,40,30.40
2022,01,03,15,41,30.40
2022,01,03,15,42,30.40
2022,01,03,15,43,30.40
2022,01,03,15,44,30.40
2022,01,03,15,45,30.40
2022,01,03,15,46,30.30
2022,01,03,15,47,30.30
2022,01,03,15,48,30.30
2022,01,03,15,49,30.30
2022,01,03,15,50,30.30
2022,01,03,15,51,30.30
2022,01,03,15,52,30.30
2022,01,03,15,53,30.30
2022,01,03,15,54,30.30
2022,01,03,15,55,30.30
2022,01,03,15,56,30.30
2022,01,03,15,57,30.30
2022,01,03,15,58,30.20
2022,01,03,15,59,30.20
2022,01,03,16,00,30.20
2022,01,03,16,01,30.20
2022,01,03,16,02,30.10
2022,01,03,16,03,30.10
2022,01,03,16,04,30.10
2022,01,03,16,05,30.00
2022,01,03,16,06,30.00
2022,01,03,16,07,29.90
2022,01,03,16,08,29.90
2022,01,03,16,09,29.90
2022,01,03,16,10,29.90
2022,01,03,16,11,29.90
2022,01,03,16,12,29.90
2022,01,03,16,13,29.90
2022,01,03,16,14,29.90
2022,01,03,16,15,29.90
2022,01,03,16,16,29.90
2022,01,03,16,17,29.90
2022,01,03,16,18,29.90
2022,01,03,16,19,29.90
2022,01,03,16,20,29.90
2022,01,03,16,21,29.80
2022,01,03,16,22,29.80
2022,01,03,16,23,29.80
2022,01,03,16,24,29.70
2022,01,03,16,25,29.70
2022,01,03,16,26,29.70
2022,01,03,16,27,29.70
2022,01,03,16,28,29.60
2022,01,03,16,29,29.60
2022,01,03,16,30,29.60
2022,01,03,16,31,29.50
2022,01,03,16,32,29.50
2022,01,03,16,33,29.50
2022,01,03,16,34,29.50
2022,01,03,16,35,29.40
2022,01,03,16,36,29.40
2022,01,03,16,37,29.40
2022,01,03,16,38,29.40
2022,01,03,16,39,29.40
2022,01,03,16,40,29.40
2022,01,03,16,41,29.30
2022,01,03,16,42,29.30
2022,01,03,16,43,29.30
2022,01,03,16,44,29.30
2022,01,03,16,45,29.30
2022,01,03,16,46,29.30
2022,01,03,16,47,29.30
2022,01,03,16,48,29.30
2022,01,03,16,49,29.20
2022,01,03,16,50,29.20
2022,01,03,16,51,29.20
2022,01,03,16,52,29.20
2022,01,03,16,53,29.20
2022,01,03,16,54,29.20
2022,01,03,16,55,29.20
2022,01,03,16,56,29.20
2022,01,03,16,57,29.20
2022,01,03,16,58,29.20
2022,01,03,16,59,29.30
2022,01,03,17,00,29.30
2022,01,03,17,01,29.30
2022,01,03,17,02,29.30
2022,01,03,17,03,29.20
2022,01,03,17,04,29.20
2022,01,03,17,05,29.20
2022,01,03,17,06,29.10
2022,01,03,17,07,29.10
2022,01,03,17,08,29.10
2022,01,03,17,09,29.10
2022,01,03,17,10,29.10
2022,01,03,17,11,29.10
2022,01,03,17,12,29.10
2022,01,03,17,13,29.10
2022,01,03,17,14,29.00
2022,01,03,17,15,29.00
2022,01,03,17,16,29.00
2022,01,03,17,17,29.00
2022,01,03,17,18,29.00
2022,01,03,17,19,29.00